AUA29N LOWW-EBBR

Flight info

Callsign AUA29N
Flight time 1h 24m
Altitude 36000
Route MEDIX DCT RENKA DCT INBED DCT TEKTU DCT TESGA DCT UMUPU T880 ADMUM/N0374F240 T880 BATTY
Aircraft A320/M-SDE3FGHIRWY/LB1

Departure

Time 2026-05-05 05:34
Airport Vienna International Airport (LOWW)

Arrival

Time 2026-05-05 06:58
Airport Brussels Airport (EBBR)
Time Latitude Longitude Altitude Speed Heading
2026-05-05 05:13 48.11441 16.57068 610 ft 0 kts 206°
2026-05-05 05:27 48.11425 16.57056 622 ft 6 kts 206°
2026-05-05 05:28 48.11373 16.57060 614 ft 9 kts 131°
2026-05-05 05:28 48.11343 16.57147 624 ft 9 kts 116°
2026-05-05 05:28 48.11311 16.57243 619 ft 11 kts 116°
2026-05-05 05:28 48.11325 16.57341 615 ft 11 kts 30°
2026-05-05 05:29 48.11391 16.57388 614 ft 10 kts 25°
2026-05-05 05:29 48.11446 16.57427 610 ft 8 kts 25°
2026-05-05 05:29 48.11501 16.57469 613 ft 10 kts 29°
2026-05-05 05:29 48.11564 16.57521 614 ft 10 kts 29°
2026-05-05 05:30 48.11623 16.57549 618 ft 9 kts 358°
2026-05-05 05:30 48.11681 16.57526 621 ft 8 kts 344°
2026-05-05 05:30 48.11736 16.57502 610 ft 10 kts 344°
2026-05-05 05:30 48.11807 16.57472 619 ft 11 kts 344°
2026-05-05 05:31 48.11883 16.57440 612 ft 11 kts 344°
2026-05-05 05:31 48.11953 16.57410 619 ft 11 kts 344°
2026-05-05 05:31 48.12012 16.57434 613 ft 9 kts 61°
2026-05-05 05:31 48.12007 16.57522 611 ft 9 kts 104°
2026-05-05 05:32 48.11996 16.57589 610 ft 0 kts 105°
2026-05-05 05:33 48.11990 16.57620 614 ft 7 kts 105°
2026-05-05 05:33 48.11975 16.57709 618 ft 10 kts 104°
2026-05-05 05:33 48.11947 16.57812 610 ft 11 kts 128°
2026-05-05 05:33 48.11845 16.57874 614 ft 31 kts 165°
2026-05-05 05:34 48.11400 16.58063 618 ft 99 kts 164°
2026-05-05 05:34 48.10557 16.58420 614 ft 151 kts 164°
2026-05-05 05:34 48.09477 16.58877 1023 ft 160 kts 163°
2026-05-05 05:34 48.08414 16.59326 1764 ft 158 kts 167°
2026-05-05 05:35 48.07351 16.59765 2395 ft 161 kts 169°
2026-05-05 05:35 48.06191 16.59943 2684 ft 177 kts 198°
2026-05-05 05:35 48.05130 16.58867 2938 ft 198 kts 224°
2026-05-05 05:35 48.04124 16.57313 3260 ft 219 kts 226°
2026-05-05 05:36 48.03042 16.55535 3626 ft 243 kts 234°
2026-05-05 05:36 48.02524 16.53080 4297 ft 259 kts 265°
2026-05-05 05:36 48.02515 16.51286 4840 ft 263 kts 267°
2026-05-05 05:36 48.02529 16.48541 5702 ft 266 kts 268°
2026-05-05 05:37 48.02550 16.45766 6594 ft 268 kts 268°
2026-05-05 05:37 48.02571 16.42967 7411 ft 271 kts 268°
2026-05-05 05:37 48.02587 16.40188 8202 ft 274 kts 267°
2026-05-05 05:37 48.02692 16.37322 8992 ft 280 kts 277°
2026-05-05 05:38 48.03270 16.34507 9796 ft 287 kts 290°
2026-05-05 05:38 48.04062 16.31717 10316 ft 301 kts 289°
2026-05-05 05:38 48.04901 16.28717 10544 ft 324 kts 289°
2026-05-05 05:38 48.05780 16.25560 11072 ft 333 kts 289°
2026-05-05 05:39 48.06676 16.22334 11749 ft 338 kts 289°
2026-05-05 05:39 48.07582 16.19064 12443 ft 343 kts 289°
2026-05-05 05:39 48.08499 16.15749 13143 ft 347 kts 289°
2026-05-05 05:39 48.09415 16.12435 13794 ft 352 kts 289°
2026-05-05 05:40 48.10351 16.09039 14400 ft 355 kts 289°
2026-05-05 05:40 48.11297 16.05607 15034 ft 358 kts 289°
2026-05-05 05:40 48.12249 16.02154 15666 ft 360 kts 289°
2026-05-05 05:40 48.13208 15.98671 16291 ft 363 kts 289°
2026-05-05 05:41 48.14172 15.95163 16898 ft 366 kts 289°
2026-05-05 05:41 48.15143 15.91621 17492 ft 369 kts 289°
2026-05-05 05:41 48.16138 15.88060 18108 ft 372 kts 290°
2026-05-05 05:41 48.17156 15.84476 18630 ft 375 kts 290°
2026-05-05 05:42 48.18184 15.80874 19171 ft 377 kts 290°
2026-05-05 05:42 48.19215 15.77246 19706 ft 379 kts 290°
2026-05-05 05:42 48.20249 15.73594 20248 ft 382 kts 290°
2026-05-05 05:42 48.21287 15.69919 20801 ft 384 kts 290°
2026-05-05 05:43 48.22329 15.66225 21338 ft 386 kts 290°
2026-05-05 05:43 48.23376 15.62503 21871 ft 388 kts 290°
2026-05-05 05:43 48.24427 15.58757 22407 ft 391 kts 291°
2026-05-05 05:43 48.25482 15.54988 22950 ft 393 kts 291°
2026-05-05 05:44 48.26541 15.51203 23464 ft 395 kts 291°
2026-05-05 05:44 48.27604 15.47391 23876 ft 397 kts 291°
2026-05-05 05:44 48.28673 15.43553 24266 ft 400 kts 291°
2026-05-05 05:44 48.29618 15.39626 24659 ft 401 kts 283°
2026-05-05 05:45 48.30279 15.35552 25042 ft 403 kts 282°
2026-05-05 05:45 48.30935 15.31451 25410 ft 405 kts 282°
2026-05-05 05:45 48.31597 15.27326 25779 ft 408 kts 282°
2026-05-05 05:45 48.32264 15.23172 26140 ft 410 kts 282°
2026-05-05 05:46 48.32934 15.18994 26501 ft 412 kts 282°
2026-05-05 05:46 48.33606 15.14795 26868 ft 414 kts 282°
2026-05-05 05:46 48.34279 15.10574 27211 ft 416 kts 282°
2026-05-05 05:46 48.34952 15.06332 27548 ft 419 kts 282°
2026-05-05 05:47 48.35624 15.02058 27879 ft 421 kts 281°
2026-05-05 05:47 48.36299 14.97765 28207 ft 423 kts 281°
2026-05-05 05:47 48.36971 14.93508 28518 ft 425 kts 281°
2026-05-05 05:47 48.37654 14.89173 28836 ft 427 kts 281°
2026-05-05 05:48 48.38338 14.84811 29143 ft 430 kts 281°
2026-05-05 05:48 48.39024 14.80426 29445 ft 432 kts 281°
2026-05-05 05:48 48.39714 14.76019 29757 ft 433 kts 282°
2026-05-05 05:48 48.40404 14.71598 30037 ft 435 kts 281°
2026-05-05 05:49 48.41091 14.67159 30289 ft 436 kts 281°
2026-05-05 05:49 48.41778 14.62706 30547 ft 437 kts 281°
2026-05-05 05:49 48.42466 14.58243 30791 ft 438 kts 281°
2026-05-05 05:49 48.43155 14.53767 31036 ft 439 kts 281°
2026-05-05 05:50 48.43843 14.49296 31364 ft 437 kts 281°
2026-05-05 05:50 48.44524 14.44843 31712 ft 436 kts 281°
2026-05-05 05:50 48.45199 14.40403 32051 ft 434 kts 281°
2026-05-05 05:50 48.45869 14.35976 32402 ft 432 kts 282°
2026-05-05 05:51 48.46535 14.31570 32783 ft 430 kts 282°
2026-05-05 05:51 48.47198 14.27191 33133 ft 428 kts 282°
2026-05-05 05:51 48.47859 14.22823 33473 ft 427 kts 282°
2026-05-05 05:51 48.48518 14.18465 33800 ft 426 kts 281°
2026-05-05 05:52 48.49168 14.14123 34084 ft 425 kts 281°
2026-05-05 05:52 48.49814 14.09781 34358 ft 424 kts 281°
2026-05-05 05:52 48.50458 14.05448 34607 ft 423 kts 281°
2026-05-05 05:52 48.51099 14.01126 34844 ft 422 kts 281°
2026-05-05 05:53 48.51738 13.96806 35074 ft 422 kts 281°
2026-05-05 05:53 48.52373 13.92492 35320 ft 421 kts 281°
2026-05-05 05:53 48.53008 13.88184 35558 ft 420 kts 281°
2026-05-05 05:53 48.53645 13.83881 35758 ft 420 kts 281°
2026-05-05 05:54 48.54280 13.79585 35861 ft 419 kts 281°
2026-05-05 05:54 48.54908 13.75308 35876 ft 416 kts 280°
2026-05-05 05:54 48.56143 13.66791 35876 ft 415 kts 280°
2026-05-05 05:55 48.57367 13.58282 35874 ft 415 kts 280°
2026-05-05 05:55 48.58795 13.49842 35873 ft 417 kts 289°
2026-05-05 05:56 48.61309 13.41972 35873 ft 419 kts 294°
2026-05-05 05:56 48.63917 13.34022 35871 ft 419 kts 293°
2026-05-05 05:57 48.66474 13.26168 35865 ft 419 kts 293°
2026-05-05 05:57 48.69052 13.18251 35865 ft 419 kts 293°
2026-05-05 05:58 48.71626 13.10328 35869 ft 420 kts 293°
2026-05-05 05:58 48.74195 13.02389 35866 ft 420 kts 292°
2026-05-05 05:59 48.76757 12.94440 35864 ft 420 kts 292°
2026-05-05 05:59 48.79312 12.86471 35860 ft 420 kts 292°
2026-05-05 06:00 48.81868 12.78509 35875 ft 420 kts 292°
2026-05-05 06:00 48.84422 12.70545 35876 ft 419 kts 292°
2026-05-05 06:01 48.86962 12.62580 35876 ft 419 kts 292°
2026-05-05 06:01 48.89491 12.54615 35874 ft 418 kts 292°
2026-05-05 06:02 48.92011 12.46642 35871 ft 418 kts 292°
2026-05-05 06:02 48.94529 12.38666 35869 ft 418 kts 292°
2026-05-05 06:03 48.97043 12.30688 35877 ft 418 kts 292°
2026-05-05 06:03 48.99545 12.22708 35873 ft 418 kts 292°
2026-05-05 06:04 49.02036 12.14719 35877 ft 417 kts 292°
2026-05-05 06:04 49.04528 12.06725 35880 ft 417 kts 292°
2026-05-05 06:05 49.07012 11.98727 35882 ft 417 kts 291°
2026-05-05 06:05 49.09477 11.90782 35895 ft 417 kts 291°
2026-05-05 06:06 49.11954 11.82777 35895 ft 417 kts 291°
2026-05-05 06:06 49.14417 11.74764 35893 ft 417 kts 291°
2026-05-05 06:07 49.16870 11.66749 35906 ft 416 kts 291°
2026-05-05 06:07 49.19314 11.58744 35903 ft 415 kts 291°
2026-05-05 06:08 49.21751 11.50737 35891 ft 415 kts 291°
2026-05-05 06:08 49.24180 11.42717 35872 ft 416 kts 291°
2026-05-05 06:09 49.26608 11.34680 35879 ft 416 kts 291°
2026-05-05 06:09 49.29037 11.26641 35875 ft 416 kts 291°
2026-05-05 06:10 49.31465 11.18591 35884 ft 416 kts 291°
2026-05-05 06:10 49.33880 11.10528 35891 ft 416 kts 290°
2026-05-05 06:11 49.36290 11.02449 35893 ft 416 kts 290°
2026-05-05 06:11 49.38832 10.94454 35890 ft 421 kts 298°
2026-05-05 06:12 49.42484 10.87345 35889 ft 425 kts 305°
2026-05-05 06:12 49.46292 10.80383 35894 ft 426 kts 305°
2026-05-05 06:13 49.50095 10.73404 35917 ft 426 kts 304°
2026-05-05 06:13 49.53883 10.66406 35903 ft 426 kts 304°
2026-05-05 06:14 49.57666 10.59385 35898 ft 426 kts 304°
2026-05-05 06:14 49.61456 10.52363 35896 ft 426 kts 304°
2026-05-05 06:15 49.65247 10.45339 35894 ft 426 kts 304°
2026-05-05 06:15 49.69028 10.38295 35911 ft 426 kts 304°
2026-05-05 06:16 49.72783 10.31287 35897 ft 426 kts 304°
2026-05-05 06:16 49.76553 10.24224 35904 ft 425 kts 304°
2026-05-05 06:17 49.80309 10.17166 35904 ft 424 kts 304°
2026-05-05 06:17 49.84054 10.10116 35901 ft 424 kts 304°
2026-05-05 06:18 49.87793 10.03068 35899 ft 423 kts 304°
2026-05-05 06:18 49.91519 9.96001 35897 ft 423 kts 303°
2026-05-05 06:19 49.95244 9.88921 35888 ft 424 kts 303°
2026-05-05 06:19 49.98977 9.81830 35884 ft 424 kts 303°
2026-05-05 06:20 50.02703 9.74729 35903 ft 423 kts 303°
2026-05-05 06:20 50.06408 9.67628 35907 ft 422 kts 303°
2026-05-05 06:21 50.10098 9.60528 35915 ft 422 kts 303°
2026-05-05 06:21 50.13792 9.53425 35897 ft 422 kts 303°
2026-05-05 06:22 50.17482 9.46305 35889 ft 422 kts 303°
2026-05-05 06:22 50.21167 9.39174 35885 ft 422 kts 303°
2026-05-05 06:23 50.24852 9.32031 35889 ft 422 kts 303°
2026-05-05 06:23 50.28529 9.24880 35898 ft 422 kts 302°
2026-05-05 06:24 50.32193 9.17724 35912 ft 421 kts 301°
2026-05-05 06:24 50.35007 9.09910 35904 ft 407 kts 284°
2026-05-05 06:25 50.36683 9.01559 35898 ft 405 kts 282°
2026-05-05 06:25 50.38350 8.93142 35892 ft 405 kts 282°
2026-05-05 06:26 50.40023 8.84715 35886 ft 405 kts 282°
2026-05-05 06:26 50.41411 8.77651 35886 ft 405 kts 282°
2026-05-05 06:27 50.43874 8.65045 35886 ft 405 kts 282°
2026-05-05 06:28 50.45048 8.56493 35889 ft 399 kts 274°
2026-05-05 06:28 50.45911 8.47881 35889 ft 400 kts 274°
2026-05-05 06:29 50.46762 8.39263 35888 ft 400 kts 274°
2026-05-05 06:29 50.47609 8.30637 35895 ft 400 kts 274°
2026-05-05 06:30 50.48457 8.22000 35888 ft 401 kts 274°
2026-05-05 06:30 50.49297 8.13400 35891 ft 401 kts 274°
2026-05-05 06:31 50.50131 8.04738 35891 ft 401 kts 274°
2026-05-05 06:31 50.50955 7.96076 35892 ft 401 kts 274°
2026-05-05 06:32 50.51775 7.87397 35783 ft 402 kts 274°
2026-05-05 06:32 50.52184 7.83050 35656 ft 403 kts 274°
2026-05-05 06:32 50.52593 7.78695 35532 ft 402 kts 274°
2026-05-05 06:32 50.53000 7.74350 35405 ft 401 kts 274°
2026-05-05 06:33 50.53405 7.70028 35282 ft 399 kts 274°
2026-05-05 06:33 50.53805 7.65717 35157 ft 398 kts 274°
2026-05-05 06:33 50.54199 7.61421 34943 ft 396 kts 273°
2026-05-05 06:33 50.54592 7.57156 34698 ft 393 kts 273°
2026-05-05 06:34 50.54979 7.52928 34451 ft 390 kts 273°
2026-05-05 06:34 50.55363 7.48723 34211 ft 386 kts 273°
2026-05-05 06:34 50.55739 7.44557 33995 ft 383 kts 272°
2026-05-05 06:34 50.55893 7.40425 33732 ft 376 kts 266°
2026-05-05 06:35 50.55921 7.36329 33454 ft 374 kts 266°
2026-05-05 06:35 50.55950 7.32236 33176 ft 373 kts 266°
2026-05-05 06:35 50.55981 7.28167 32903 ft 372 kts 266°
2026-05-05 06:35 50.56012 7.24115 32551 ft 367 kts 266°
2026-05-05 06:36 50.56041 7.20120 32099 ft 364 kts 266°
2026-05-05 06:36 50.56062 7.16168 31651 ft 360 kts 266°
2026-05-05 06:36 50.56025 7.12303 31214 ft 356 kts 265°
2026-05-05 06:36 50.55944 7.08425 30786 ft 353 kts 264°
2026-05-05 06:37 50.55840 7.04587 30361 ft 350 kts 264°
2026-05-05 06:37 50.55730 7.00774 29937 ft 348 kts 264°
2026-05-05 06:37 50.55628 6.96985 29511 ft 345 kts 264°
2026-05-05 06:37 50.55533 6.93234 29095 ft 342 kts 264°
2026-05-05 06:38 50.55443 6.89525 28711 ft 337 kts 264°
2026-05-05 06:38 50.55357 6.85870 28329 ft 333 kts 265°
2026-05-05 06:38 50.55269 6.82254 27957 ft 330 kts 265°
2026-05-05 06:38 50.55179 6.78652 27584 ft 329 kts 265°
2026-05-05 06:39 50.55089 6.75068 27212 ft 328 kts 265°
2026-05-05 06:39 50.55001 6.71488 26837 ft 327 kts 266°
2026-05-05 06:39 50.55103 6.67918 26458 ft 328 kts 275°
2026-05-05 06:39 50.55518 6.64379 26081 ft 329 kts 278°
2026-05-05 06:40 50.55954 6.60857 25690 ft 328 kts 278°
2026-05-05 06:40 50.56382 6.57344 25300 ft 327 kts 278°
2026-05-05 06:40 50.56804 6.53834 24908 ft 326 kts 278°
2026-05-05 06:40 50.57224 6.50338 24500 ft 325 kts 279°
2026-05-05 06:41 50.57643 6.46845 24101 ft 324 kts 279°
2026-05-05 06:41 50.58055 6.43409 23699 ft 324 kts 279°
2026-05-05 06:41 50.58471 6.39932 23262 ft 323 kts 279°
2026-05-05 06:41 50.58885 6.36465 22835 ft 322 kts 279°
2026-05-05 06:42 50.59296 6.33005 22434 ft 321 kts 279°
2026-05-05 06:42 50.59704 6.29567 22034 ft 319 kts 279°
2026-05-05 06:42 50.60110 6.26147 21646 ft 317 kts 279°
2026-05-05 06:42 50.60515 6.22736 21260 ft 316 kts 279°
2026-05-05 06:43 50.60915 6.19345 20884 ft 315 kts 279°
2026-05-05 06:43 50.61312 6.15964 20490 ft 313 kts 279°
2026-05-05 06:43 50.61708 6.12597 20120 ft 312 kts 279°
2026-05-05 06:43 50.62104 6.09238 19748 ft 312 kts 279°
2026-05-05 06:44 50.62494 6.05876 19369 ft 317 kts 279°
2026-05-05 06:44 50.62908 6.02277 18968 ft 347 kts 279°
2026-05-05 06:44 50.63345 5.98484 18543 ft 359 kts 279°
2026-05-05 06:44 50.63797 5.94562 18097 ft 366 kts 280°
2026-05-05 06:45 50.64254 5.90616 17627 ft 366 kts 280°
2026-05-05 06:45 50.64724 5.86680 17188 ft 365 kts 283°
2026-05-05 06:45 50.65568 5.82891 16753 ft 370 kts 296°
2026-05-05 06:45 50.66739 5.79275 16318 ft 370 kts 297°
2026-05-05 06:46 50.67905 5.75668 15893 ft 368 kts 297°
2026-05-05 06:46 50.69059 5.72079 15474 ft 366 kts 297°
2026-05-05 06:46 50.70203 5.68511 15047 ft 363 kts 297°
2026-05-05 06:46 50.71336 5.64967 14624 ft 361 kts 297°
2026-05-05 06:47 50.72464 5.61436 14219 ft 359 kts 297°
2026-05-05 06:47 50.73585 5.57924 13807 ft 358 kts 298°
2026-05-05 06:47 50.74705 5.54424 13344 ft 356 kts 298°
2026-05-05 06:47 50.75814 5.50952 12925 ft 352 kts 298°
2026-05-05 06:48 50.76910 5.47516 12514 ft 349 kts 298°
2026-05-05 06:48 50.77995 5.44106 12116 ft 345 kts 298°
2026-05-05 06:48 50.79051 5.40785 11981 ft 332 kts 298°
2026-05-05 06:48 50.80048 5.37626 11570 ft 322 kts 298°
2026-05-05 06:49 50.81040 5.34480 10991 ft 318 kts 298°
2026-05-05 06:49 50.82017 5.31386 10504 ft 314 kts 298°
2026-05-05 06:49 50.82987 5.28314 10251 ft 307 kts 299°
2026-05-05 06:49 50.83920 5.25353 9992 ft 296 kts 299°
2026-05-05 06:50 50.84834 5.22449 9520 ft 294 kts 299°
2026-05-05 06:50 50.85739 5.19575 8999 ft 291 kts 299°
2026-05-05 06:50 50.86642 5.16704 8598 ft 289 kts 299°
2026-05-05 06:50 50.87539 5.13856 8141 ft 288 kts 300°
2026-05-05 06:51 50.88560 5.11215 7683 ft 276 kts 305°
2026-05-05 06:51 50.89576 5.08701 7273 ft 266 kts 305°
2026-05-05 06:51 50.90551 5.06277 6885 ft 256 kts 305°
2026-05-05 06:51 50.91495 5.03923 6557 ft 254 kts 305°
2026-05-05 06:52 50.92448 5.01551 6194 ft 256 kts 305°
2026-05-05 06:52 50.93401 4.99175 5784 ft 256 kts 305°
2026-05-05 06:52 50.94356 4.96795 5389 ft 256 kts 305°
2026-05-05 06:52 50.95305 4.94424 5047 ft 252 kts 305°
2026-05-05 06:53 50.96225 4.92122 4873 ft 243 kts 305°
2026-05-05 06:53 50.97091 4.89851 4675 ft 238 kts 297°
2026-05-05 06:53 50.97502 4.87358 4541 ft 232 kts 275°
2026-05-05 06:53 50.97327 4.84874 4416 ft 225 kts 254°
2026-05-05 06:54 50.96806 4.82541 4160 ft 223 kts 251°
2026-05-05 06:54 50.96278 4.80230 3880 ft 222 kts 251°
2026-05-05 06:54 50.95758 4.77948 3588 ft 218 kts 252°
2026-05-05 06:54 50.95246 4.75702 3270 ft 214 kts 251°
2026-05-05 06:55 50.94747 4.73514 2996 ft 209 kts 251°
2026-05-05 06:55 50.94257 4.71363 2718 ft 205 kts 251°
2026-05-05 06:55 50.93776 4.69260 2434 ft 200 kts 252°
2026-05-05 06:55 50.93314 4.67242 2170 ft 189 kts 253°
2026-05-05 06:56 50.92880 4.65348 1919 ft 176 kts 253°
2026-05-05 06:56 50.92481 4.63606 1715 ft 163 kts 252°
2026-05-05 06:56 50.92101 4.61944 1482 ft 158 kts 252°
2026-05-05 06:56 50.91729 4.60322 1268 ft 156 kts 253°
2026-05-05 06:57 50.91361 4.58721 1051 ft 154 kts 253°
2026-05-05 06:57 50.90997 4.57134 829 ft 151 kts 253°
2026-05-05 06:57 50.90638 4.55574 642 ft 151 kts 253°
2026-05-05 06:57 50.90287 4.54045 425 ft 147 kts 254°
2026-05-05 06:58 50.89940 4.52535 226 ft 145 kts 253°
2026-05-05 06:58 50.89611 4.51096 147 ft 123 kts 250°
2026-05-05 06:58 50.89379 4.50095 148 ft 72 kts 250°
2026-05-05 06:58 50.89265 4.49600 145 ft 29 kts 249°
2026-05-05 06:59 50.89220 4.49347 140 ft 17 kts 278°
2026-05-05 06:59 50.89276 4.49222 141 ft 13 kts 311°
2026-05-05 06:59 50.89336 4.49111 141 ft 13 kts 309°
2026-05-05 06:59 50.89385 4.49022 144 ft 9 kts 320°
2026-05-05 07:00 50.89438 4.49016 144 ft 9 kts 12°
2026-05-05 07:00 50.89528 4.49050 144 ft 14 kts 14°
2026-05-05 07:00 50.89622 4.49109 144 ft 15 kts 36°
2026-05-05 07:00 50.89723 4.49176 144 ft 16 kts 15°
2026-05-05 07:01 50.89831 4.49221 147 ft 16 kts 14°
2026-05-05 07:01 50.89952 4.49269 144 ft 20 kts 14°
2026-05-05 07:01 50.90094 4.49327 142 ft 22 kts 14°
2026-05-05 07:01 50.90249 4.49392 138 ft 21 kts 15°
2026-05-05 07:02 50.90339 4.49371 137 ft 14 kts 323°
2026-05-05 07:02 50.90386 4.49261 136 ft 9 kts 256°
2026-05-05 07:02 50.90363 4.49188 136 ft 6 kts 244°
2026-05-05 07:02 50.90348 4.49138 137 ft 4 kts 244°
2026-05-05 07:03 50.90326 4.49058 138 ft 9 kts 245°
2026-05-05 07:03 50.90301 4.48971 138 ft 10 kts 246°
2026-05-05 07:03 50.90266 4.48847 138 ft 12 kts 246°
2026-05-05 07:03 50.90233 4.48736 139 ft 10 kts 245°
2026-05-05 07:04 50.90208 4.48649 139 ft 7 kts 245°
2026-05-05 07:04 50.90186 4.48574 139 ft 8 kts 246°
2026-05-05 07:04 50.90190 4.48505 137 ft 6 kts 322°
2026-05-05 07:04 50.90233 4.48473 137 ft 7 kts 335°
2026-05-05 07:05 50.90245 4.48465 137 ft 0 kts 334°
2026-05-05 07:07 50.90245 4.48464 137 ft 0 kts 334°
2026-05-05 07:16 50.90239 4.48469 137 ft 4 kts 334°
2026-05-05 07:16 50.90214 4.48487 137 ft 4 kts 334°
2026-05-05 07:17 50.90198 4.48499 137 ft 4 kts 334°
2026-05-05 07:17 50.90180 4.48513 138 ft 0 kts 334°
2026-05-05 07:17 50.90207 4.48481 137 ft 9 kts 257°
2026-05-05 07:17 50.90172 4.48524 139 ft 15 kts 67°
2026-05-05 07:18 50.90204 4.48634 139 ft 10 kts 68°
2026-05-05 07:18 50.90228 4.48718 139 ft 9 kts 65°
2026-05-05 07:18 50.90269 4.48859 139 ft 16 kts 65°
2026-05-05 07:18 50.90285 4.48915 139 ft 9 kts 65°
2026-05-05 07:19 50.90303 4.48977 139 ft 11 kts 66°
2026-05-05 07:19 50.90343 4.49118 138 ft 16 kts 65°
2026-05-05 07:19 50.90370 4.49216 136 ft 11 kts 73°
2026-05-05 07:19 50.90398 4.49215 136 ft 10 kts 350°
2026-05-05 07:20 50.90399 4.49304 136 ft 16 kts 65°
2026-05-05 07:20 50.90405 4.49437 135 ft 11 kts 133°
2026-05-05 07:20 50.90352 4.49424 137 ft 10 kts 226°
2026-05-05 07:20 50.90365 4.49339 136 ft 11 kts 340°
2026-05-05 07:21 50.90429 4.49263 135 ft 16 kts 311°
2026-05-05 07:21 50.90433 4.49109 134 ft 16 kts 239°
2026-05-05 07:21 50.90364 4.48978 136 ft 16 kts 225°
2026-05-05 07:21 50.90287 4.48859 138 ft 16 kts 225°
2026-05-05 07:22 50.90215 4.48732 140 ft 16 kts 233°